Meteo pe oră la Aalsmeer

Astăzi, 13 Iunie, Duminică

Timp Temperatura Precipitaţii Vânt Presiune Umiditate
00:00 +10°C° 0 mm 2 m/s 770 mmHg 84%
01:00 +10°C° 0 mm 2 m/s 770 mmHg 85%
02:00 +11°C° 0 mm 1 m/s 770 mmHg 85%
03:00 +11°C° 0 mm 1 m/s 770 mmHg 85%
04:00 +12°C° 0 mm 1 m/s 770 mmHg 80%
05:00 +13°C° 0 mm 1 m/s 770 mmHg 74%
06:00 +15°C° 0 mm 1 m/s 771 mmHg 68%
07:00 +16°C° 0 mm 1 m/s 771 mmHg 62%
08:00 +19°C° 0 mm 1 m/s 771 mmHg 55%
09:00 +20°C° 0 mm 1 m/s 771 mmHg 49%
10:00 +21°C° 0 mm 1 m/s 771 mmHg 47%
11:00 +21°C° 0 mm 2 m/s 771 mmHg 45%
12:00 +23°C° 0 mm 2 m/s 771 mmHg 42%
13:00 +23°C° 0 mm 2 m/s 770 mmHg 43%
14:00 +24°C° 0 mm 2 m/s 770 mmHg 43%
15:00 +24°C° 0 mm 2 m/s 770 mmHg 43%
16:00 +23°C° 0 mm 2 m/s 770 mmHg 48%
17:00 +21°C° 0 mm 2 m/s 769 mmHg 52%
18:00 +20°C° 0 mm 2 m/s 769 mmHg 56%
19:00 +20°C° 0 mm 1 m/s 769 mmHg 62%
20:00 +18°C° 0 mm 1 m/s 769 mmHg 68%
21:00 +15°C° 0 mm 1 m/s 769 mmHg 74%
22:00 +15°C° 0 mm 1 m/s 769 mmHg 76%
23:00 +15°C° 0 mm 2 m/s 768 mmHg 78%

Mâine, 14 Iunie, Luni

Timp Temperatura Precipitaţii Vânt Presiune Umiditate
00:00 +14°C° 0 mm 2 m/s 768 mmHg 80%
01:00 +14°C° 0 mm 2 m/s 768 mmHg 81%
02:00 +14°C° 0 mm 2 m/s 767 mmHg 81%
03:00 +14°C° 0 mm 2 m/s 767 mmHg 81%
04:00 +15°C° 0 mm 2 m/s 767 mmHg 76%
05:00 +16°C° 0 mm 3 m/s 767 mmHg 70%
06:00 +18°C° 0 mm 3 m/s 766 mmHg 64%
07:00 +20°C° 0 mm 3 m/s 766 mmHg 58%
08:00 +21°C° 0 mm 3 m/s 766 mmHg 52%
09:00 +24°C° 0 mm 3 m/s 766 mmHg 46%
10:00 +25°C° 0 mm 3 m/s 766 mmHg 45%
11:00 +26°C° 0 mm 4 m/s 766 mmHg 43%
12:00 +26°C° 0 mm 4 m/s 765 mmHg 41%
13:00 +26°C° 0 mm 4 m/s 765 mmHg 42%
14:00 +26°C° 0 mm 4 m/s 765 mmHg 44%
15:00 +26°C° 0 mm 3 m/s 765 mmHg 45%
16:00 +25°C° 0 mm 4 m/s 765 mmHg 52%
17:00 +22°C° 0 mm 4 m/s 765 mmHg 59%
18:00 +21°C° 0 mm 4 m/s 765 mmHg 66%
19:00 +20°C° 0 mm 3 m/s 765 mmHg 73%
20:00 +18°C° 0 mm 3 m/s 765 mmHg 80%
21:00 +17°C° 0 mm 3 m/s 765 mmHg 87%
22:00 +17°C° 0 mm 3 m/s 765 mmHg 85%
23:00 +17°C° 0 mm 3 m/s 765 mmHg 84%

Poimâine, 15 Iunie, Marţi

Timp Temperatura Precipitaţii Vânt Presiune Umiditate
00:00 +17°C° 0 mm 3 m/s 765 mmHg 83%
01:00 +17°C° 0 mm 2 m/s 765 mmHg 82%
02:00 +17°C° 0 mm 2 m/s 766 mmHg 81%
03:00 +16°C° 0 mm 2 m/s 766 mmHg 81%
04:00 +16°C° 0 mm 2 m/s 766 mmHg 78%
05:00 +16°C° 0 mm 2 m/s 766 mmHg 75%
06:00 +16°C° 0 mm 3 m/s 766 mmHg 72%
07:00 +18°C° 0 mm 2 m/s 766 mmHg 66%
08:00 +19°C° 0 mm 2 m/s 766 mmHg 59%
09:00 +20°C° 0 mm 2 m/s 766 mmHg 52%
10:00 +21°C° 0 mm 2 m/s 766 mmHg 50%
11:00 +23°C° 0 mm 2 m/s 766 mmHg 47%
12:00 +24°C° 0 mm 2 m/s 766 mmHg 45%
13:00 +24°C° 0 mm 3 m/s 766 mmHg 45%
14:00 +24°C° 0 mm 3 m/s 765 mmHg 46%
15:00 +24°C° 0 mm 3 m/s 765 mmHg 46%
16:00 +22°C° 0 mm 3 m/s 765 mmHg 51%
17:00 +21°C° 0 mm 3 m/s 765 mmHg 55%
18:00 +19°C° 0 mm 3 m/s 764 mmHg 60%
19:00 +18°C° 0 mm 3 m/s 764 mmHg 65%
20:00 +17°C° 0 mm 2 m/s 764 mmHg 70%
21:00 +16°C° 0 mm 2 m/s 764 mmHg 75%
22:00 +15°C° 0 mm 2 m/s 764 mmHg 78%
23:00 +15°C° 0 mm 2 m/s 764 mmHg 81%

16 Iunie, Miercuri

Timp Temperatura Precipitaţii Vânt Presiune Umiditate
00:00 +15°C° 0 mm 2 m/s 764 mmHg 85%
01:00 +15°C° 0 mm 2 m/s 763 mmHg 86%
02:00 +15°C° 0 mm 2 m/s 763 mmHg 88%
03:00 +14°C° 0 mm 2 m/s 763 mmHg 89%
04:00 +16°C° 0 mm 2 m/s 763 mmHg 84%
05:00 +17°C° 0 mm 2 m/s 762 mmHg 79%
06:00 +18°C° 0 mm 2 m/s 762 mmHg 73%
07:00 +20°C° 0 mm 2 m/s 762 mmHg 68%
08:00 +22°C° 0 mm 1 m/s 762 mmHg 63%
09:00 +24°C° 0 mm 1 m/s 762 mmHg 57%
10:00 +25°C° 0 mm 1 m/s 761 mmHg 54%
11:00 +26°C° 0 mm 2 m/s 761 mmHg 51%
12:00 +27°C° 0 mm 2 m/s 761 mmHg 48%
13:00 +28°C° 0 mm 2 m/s 761 mmHg 47%
14:00 +28°C° 0 mm 2 m/s 760 mmHg 46%
15:00 +28°C° 0 mm 2 m/s 760 mmHg 45%
16:00 +27°C° 0 mm 2 m/s 760 mmHg 50%
17:00 +27°C° 0 mm 2 m/s 760 mmHg 55%
18:00 +26°C° 0 mm 2 m/s 760 mmHg 60%
19:00 +24°C° 0 mm 2 m/s 760 mmHg 67%
20:00 +21°C° 0 mm 2 m/s 760 mmHg 73%
21:00 +20°C° 0 mm 2 m/s 760 mmHg 79%
22:00 +20°C° 0 mm 2 m/s 760 mmHg 81%
23:00 +19°C° 0 mm 2 m/s 759 mmHg 84%

17 Iunie, Joi

Timp Temperatura Precipitaţii Vânt Presiune Umiditate
00:00 +19°C° 0 mm 2 m/s 759 mmHg 86%
01:00 +19°C° 0 mm 2 m/s 759 mmHg 88%
02:00 +19°C° 0 mm 2 m/s 758 mmHg 89%
03:00 +19°C° 0 mm 2 m/s 758 mmHg 90%
04:00 +20°C° 0 mm 3 m/s 758 mmHg 85%
05:00 +21°C° 0 mm 3 m/s 757 mmHg 79%
06:00 +24°C° 0 mm 3 m/s 757 mmHg 74%
07:00 +26°C° 0 mm 4 m/s 757 mmHg 66%
08:00 +27°C° 0 mm 4 m/s 757 mmHg 58%
09:00 +29°C° 0 mm 4 m/s 756 mmHg 50%
10:00 +32°C° 0 mm 4 m/s 756 mmHg 47%
11:00 +33°C° 0 mm 5 m/s 756 mmHg 45%
12:00 +34°C° 0 mm 5 m/s 756 mmHg 42%
13:00 +33°C° 0.3 mm 5 m/s 756 mmHg 49%
14:00 +30°C° 0.3 mm 5 m/s 756 mmHg 56%
15:00 +29°C° 0.3 mm 6 m/s 756 mmHg 63%
16:00 +28°C° 0.3 mm 5 m/s 757 mmHg 66%
17:00 +26°C° 0.3 mm 4 m/s 757 mmHg 69%
18:00 +25°C° 0.3 mm 3 m/s 757 mmHg 72%
19:00 +24°C° 0 mm 2 m/s 757 mmHg 76%
20:00 +21°C° 0 mm 2 m/s 758 mmHg 80%
21:00 +21°C° 0 mm 1 m/s 758 mmHg 84%
22:00 +20°C° 0 mm 1 m/s 758 mmHg 86%
23:00 +20°C° 0 mm 1 m/s 758 mmHg 87%

18 Iunie, Vineri

Timp Temperatura Precipitaţii Vânt Presiune Umiditate
00:00 +20°C° 0 mm 1 m/s 758 mmHg 89%
01:00 +19°C° 0 mm 1 m/s 758 mmHg 90%
02:00 +19°C° 0 mm 1 m/s 758 mmHg 91%
03:00 +19°C° 0 mm 1 m/s 758 mmHg 93%
04:00 +20°C° 0.2 mm 1 m/s 758 mmHg 91%
05:00 +21°C° 0.2 mm 1 m/s 758 mmHg 89%
06:00 +21°C° 0.2 mm 2 m/s 758 mmHg 87%
07:00 +23°C° 0.4 mm 1 m/s 758 mmHg 82%
08:00 +24°C° 0.4 mm 1 m/s 758 mmHg 78%
09:00 +26°C° 0.4 mm 1 m/s 758 mmHg 73%
10:00 +26°C° 0.3 mm 2 m/s 758 mmHg 71%
11:00 +27°C° 0.3 mm 2 m/s 757 mmHg 68%
12:00 +28°C° 0.3 mm 2 m/s 757 mmHg 66%
13:00 +28°C° 1.1 mm 2 m/s 757 mmHg 65%
14:00 +28°C° 1.1 mm 2 m/s 757 mmHg 64%
15:00 +29°C° 1.1 mm 2 m/s 756 mmHg 63%
16:00 +28°C° 0.7 mm 2 m/s 757 mmHg 69%
17:00 +26°C° 0.7 mm 2 m/s 757 mmHg 76%
18:00 +25°C° 0.7 mm 1 m/s 757 mmHg 82%
19:00 +24°C° 0.3 mm 2 m/s 757 mmHg 85%
20:00 +23°C° 0.3 mm 2 m/s 757 mmHg 88%
21:00 +21°C° 0.3 mm 2 m/s 758 mmHg 90%
22:00 +20°C° 0 mm 3 m/s 758 mmHg 91%
23:00 +20°C° 0 mm 3 m/s 758 mmHg 92%
Arată mai mult

Formular de consimțământ

Meteoprog și furnizorii noștri de servicii pot stoca și accesa date personale, precum cookies, identificatori de dispozitiv sau alte tehnologii similare pe dispozitivul dumneavoastră și procesa astfel de date pentru a personaliza conținutul și reclamele, dar și pentru a oferi caracteristici de social media și pentru a analiza traficul.

  • Stocarea și/sau accesarea informațiilor pe dispozitivul dumneavoastră

    Cookies, identificatori de dispozitiv sau alte informații pot fi stocate sau accesate pe dispozitiv în scopurile indicate mai sus.

  • Reclame și conținut personalizat, evaluarea reclamelor și a conținutului, informații despre audiențe și dezvoltarea produselor

    Reclamele și conținutul pot fi personalizate pe baza unui profil. Pot fi adăugate date suplimentare pentru a personaliza mai bine reclamele și conținutul. Performanța reclamelor și conținutului poate fi măsurată. Pot fi obținute informații despre utilizatorii care au văzut reclamele și conținutul. Aceste date pot fi utilizate pentru a dezvolta sau îmbunătăți experiența utilizatorilor, sistemele și software-ul.

Dând clic pe ‘Sunt de acord’, permiteți utilizarea cookie-urilor menționate, a identificatorilor de dispozitiv, balizelor web sau altor tehnologii similare. Setările pot fi modificate din browser-ul dispozitivului dumneavoastră.

În anumite scopuri, interesele legitime pot prima asupra consimțământului. Puteți citi mai multe informații în acest sens în Politica privind Confidențialitatea Datelor și Cookie.